Location: Strawberry
(45.6646°N, 111.9596°W)
Time: 21:55:04
(UTC+00:00)

Explorer 11/Cluster Stage 4 - Pass Details

Date: 06 October 2022
Orbit: 466 x 1248 km, 28.8° (Epoch: 28 November)

Event Time Altitude Azimuth Distance (km) Brightness Sun altitude
Rises 18:20:51 0° 232° (SW) 4,161 10.5 37.6°
Reaches altitude 10° 18:24:34 10° 218° (SW) 3,210 10.3 37.7°
Maximum altitude 18:30:16 21° 173° (S) 2,441 10.9 38.0°
Drops below altitude 10° 18:35:44 10° 128° (SE) 3,067 10.4 38.2°
Sets 18:39:11 0° 114° (ESE) 3,926 10.6 38.4°
